Location: Chervonnoye
(48.6000°N, 34.4000°E)
Time: 05:43:39
(UTC+00:00)

Cosmos 1933 - Pass Details

Date: 23 November 2020
Orbit: 546 x 563 km, 82.5° (Epoch: 18 January)

Event Time Altitude Azimuth Distance (km) Brightness Sun altitude
Rises 15:12:11 0° 156° (SSE) 2,715 6.8 -12.6°
Reaches altitude 10° 15:14:37 10° 143° (SE) 1,829 5.8 -13.0°
Maximum altitude 15:17:53 24° 88° (E) 1,170 4.4 -13.5°
Enters shadow 15:18:47 22° 68° (ENE) 1,234 4.5 -13.6°
